Change the Weather History Date:

Monday, March 25, 2013

  Actual Average Record
Temperature  
Mean Temperature 22 °F 41 °F  
Max Temperature 28 °F 54 °F 86 °F (1956)
Min Temperature 16 °F 28 °F -1 °F (1965)
Degree Days  
Heating Degree Days 43 24  
Cooling Degree Days 0 0  
Moisture  
Dew Point 13 °F    
Average Humidity 65    
Maximum Humidity 84    
Minimum Humidity 46    
Precipitation  
Precipitation 0.00 in - 1.28 in (2007)
Sea Level Pressure  
Sea Level Pressure 30.27 in    
Wind  
Wind Speed 14 mph (NW)    
Max Wind Speed 23 mph    
Max Gust Speed 32 mph    
Visibility 10 miles    
Events      
T = Trace of Precipitation, MM = Missing Value Source: NWS Daily Summary

Daily Weather History Graph

Daily Weather History Graph

Search for Another Location

Airport or City:

Trip Planner

Search our weather history database for the weather conditions in past years. The results will help you decide how hot, cold, wet, or windy it might be!

Date:

Astronomy

Mar. 25, 2013 Rise Set
Actual Time 7:30 AM CDT 7:53 PM CDT
Civil Twilight 7:03 AM CDT 8:21 PM CDT
Nautical Twilight 6:31 AM CDT 8:53 PM CDT
Astronomical Twilight 5:58 AM CDT 9:26 PM CDT
Moon 6:26 PM CDT (3/25) 6:15 AM CDT (3/25)
Length of Visible Light 13h 17m
Length of Day
12h 23m
Waxing Gibbous, 96% of the Moon is Illuminated
Mar 25
Waxing Gibbous
Mar 27
Full
Apr 2
Last Quarter
Apr 10
New
Apr 18
First Quarter

Hourly Weather History & Observations

Time (CDT) Temp. Windchill Dew Point Humidity Pressure Visibility Wind Dir Wind Speed Gust Speed Precip Events Conditions
12:15 AM 19.4 °F 6.0 °F 15.8 °F 86% 30.17 in 10.0 mi WNW 13.8 mph - N/A   Clear
12:35 AM 19.4 °F 6.6 °F 15.8 °F 86% 30.18 in 10.0 mi WNW 12.7 mph - N/A   Clear
12:55 AM 19.4 °F 6.6 °F 15.8 °F 86% 30.18 in 10.0 mi WNW 12.7 mph - N/A   Clear
1:15 AM 19.4 °F 6.6 °F 15.8 °F 86% 30.18 in 10.0 mi WNW 12.7 mph - N/A   Clear
1:35 AM 19.4 °F 6.0 °F 15.8 °F 86% 30.19 in 10.0 mi WNW 13.8 mph 18.4 mph N/A   Clear
1:55 AM 19.4 °F 5.5 °F 14.0 °F 80% 30.19 in 10.0 mi WNW 15.0 mph - N/A   Clear
2:15 AM 19.4 °F 5.5 °F 14.0 °F 80% 30.20 in 10.0 mi NW 15.0 mph 19.6 mph N/A   Clear
2:35 AM 19.4 °F 5.5 °F 14.0 °F 80% 30.20 in 10.0 mi WNW 15.0 mph - N/A   Clear
2:55 AM 19.4 °F 5.5 °F 15.8 °F 86% 30.20 in 10.0 mi WNW 15.0 mph 19.6 mph N/A   Clear
3:15 AM 19.4 °F 5.5 °F 15.8 °F 86% 30.20 in 10.0 mi WNW 15.0 mph 20.7 mph N/A   Clear
3:35 AM 19.4 °F 6.0 °F 14.0 °F 80% 30.20 in 10.0 mi WNW 13.8 mph - N/A   Clear
3:55 AM 19.4 °F 6.6 °F 14.0 °F 80% 30.20 in 10.0 mi NW 12.7 mph - N/A   Clear
4:15 AM 19.4 °F 7.2 °F 14.0 °F 80% 30.20 in 10.0 mi WNW 11.5 mph - N/A   Clear
4:35 AM 19.4 °F 7.2 °F 14.0 °F 80% 30.21 in 10.0 mi WNW 11.5 mph - N/A   Clear
4:55 AM 19.4 °F 7.2 °F 14.0 °F 80% 30.21 in 10.0 mi WNW 11.5 mph - N/A   Clear
5:15 AM 17.6 °F 5.7 °F 14.0 °F 86% 30.21 in 10.0 mi NW 10.4 mph - N/A   Clear
5:35 AM 19.4 °F 6.6 °F 14.0 °F 80% 30.22 in 10.0 mi NW 12.7 mph - N/A   Clear
5:55 AM 19.4 °F 7.2 °F 15.8 °F 86% 30.23 in 10.0 mi NW 11.5 mph - N/A   Scattered Clouds
6:15 AM 19.4 °F 7.9 °F 15.8 °F 86% 30.23 in 10.0 mi NW 10.4 mph - N/A   Overcast
6:35 AM 21.2 °F 10.1 °F 17.6 °F 86% 30.23 in 9.0 mi WNW 10.4 mph - N/A   Overcast
6:55 AM 21.2 °F 8.9 °F 17.6 °F 86% 30.23 in 10.0 mi WNW 12.7 mph - N/A   Mostly Cloudy
7:15 AM 19.4 °F 5.5 °F 15.8 °F 86% 30.24 in 10.0 mi WNW 15.0 mph - N/A   Partly Cloudy
7:35 AM 19.4 °F 6.0 °F 14.0 °F 80% 30.24 in 10.0 mi NW 13.8 mph 18.4 mph N/A   Partly Cloudy
7:55 AM 19.4 °F 6.6 °F 14.0 °F 80% 30.25 in 10.0 mi NW 12.7 mph - N/A   Scattered Clouds
8:15 AM 19.4 °F 6.6 °F 15.8 °F 86% 30.25 in 10.0 mi NW 12.7 mph - N/A   Mostly Cloudy
8:35 AM 21.2 °F 6.4 °F 17.6 °F 86% 30.26 in 10.0 mi WNW 18.4 mph - N/A   Mostly Cloudy
8:55 AM 21.2 °F 6.4 °F 12.2 °F 68% 30.27 in 10.0 mi NW 18.4 mph 25.3 mph N/A   Scattered Clouds
9:15 AM 21.2 °F 6.4 °F 12.2 °F 68% 30.28 in 10.0 mi NW 18.4 mph 25.3 mph N/A   Clear
9:35 AM 23.0 °F 7.2 °F 12.2 °F 63% 30.27 in 10.0 mi NW 23.0 mph 32.2 mph N/A   Clear
9:55 AM 23.0 °F 7.6 °F 12.2 °F 63% 30.28 in 10.0 mi NW 21.9 mph 28.8 mph N/A   Clear
10:15 AM 24.8 °F 9.3 °F 12.2 °F 59% 30.28 in 10.0 mi NW 24.2 mph 28.8 mph N/A   Partly Cloudy
10:35 AM 24.8 °F 8.7 °F 10.4 °F 54% 30.29 in 10.0 mi NW 26.5 mph 33.4 mph N/A   Scattered Clouds
10:55 AM 24.8 °F 9.6 °F 10.4 °F 54% 30.30 in 10.0 mi NNW 23.0 mph 32.2 mph N/A   Scattered Clouds
11:15 AM 26.6 °F 11.1 °F 10.4 °F 51% 30.30 in 10.0 mi NW 26.5 mph 32.2 mph N/A   Mostly Cloudy
11:35 AM 24.8 °F 9.3 °F 10.4 °F 54% 30.30 in 10.0 mi NW 24.2 mph 31.1 mph N/A   Overcast
11:55 AM 26.6 °F 12.7 °F 10.4 °F 51% 30.30 in 10.0 mi NW 20.7 mph 31.1 mph N/A   Mostly Cloudy
12:15 PM 26.6 °F 12.7 °F 10.4 °F 51% 30.31 in 10.0 mi NW 20.7 mph 25.3 mph N/A   Overcast
12:35 PM 26.6 °F 13.4 °F 10.4 °F 51% 30.31 in 10.0 mi NW 18.4 mph 25.3 mph N/A   Mostly Cloudy
12:55 PM 26.6 °F 12.4 °F 10.4 °F 51% 30.31 in 10.0 mi NNW 21.9 mph 26.5 mph N/A   Mostly Cloudy
1:15 PM 26.6 °F 13.4 °F 10.4 °F 51% 30.31 in 10.0 mi NNW 18.4 mph 26.5 mph N/A   Scattered Clouds
1:35 PM 26.6 °F 14.7 °F 10.4 °F 51% 30.30 in 10.0 mi NW 15.0 mph 26.5 mph N/A   Mostly Cloudy
1:55 PM 28.4 °F 15.4 °F 10.4 °F 47% 30.30 in 10.0 mi NNW 19.6 mph - N/A   Mostly Cloudy
2:15 PM 26.6 °F 13.1 °F 10.4 °F 51% 30.30 in 10.0 mi NNW 19.6 mph 24.2 mph N/A   Overcast
2:35 PM 26.6 °F 14.3 °F 12.2 °F 55% 30.30 in 8.0 mi NNW 16.1 mph 23.0 mph N/A   Overcast
2:55 PM 28.4 °F 17.5 °F 14.0 °F 55% 30.30 in 10.0 mi NNW 13.8 mph 24.2 mph N/A   Overcast
3:15 PM 28.4 °F 16.6 °F 12.2 °F 51% 30.30 in 10.0 mi NNW 16.1 mph - N/A   Overcast
3:35 PM 28.4 °F 16.2 °F 12.2 °F 51% 30.29 in 10.0 mi NNW 17.3 mph - N/A   Overcast
3:55 PM 28.4 °F 17.0 °F 10.4 °F 47% 30.29 in 10.0 mi NW 15.0 mph 18.4 mph N/A   Mostly Cloudy
4:15 PM 28.4 °F 16.6 °F 12.2 °F 51% 30.29 in 10.0 mi NNW 16.1 mph 19.6 mph N/A   Mostly Cloudy
4:35 PM 28.4 °F 17.5 °F 12.2 °F 51% 30.29 in 10.0 mi North 13.8 mph 20.7 mph N/A   Overcast
4:55 PM 28.4 °F 18.5 °F 12.2 °F 51% 30.29 in 10.0 mi NW 11.5 mph 20.7 mph N/A   Mostly Cloudy
5:15 PM 28.4 °F 17.5 °F 12.2 °F 51% 30.29 in 10.0 mi NW 13.8 mph - N/A   Overcast
5:35 PM 28.4 °F 16.6 °F 12.2 °F 51% 30.29 in 10.0 mi NNW 16.1 mph 21.9 mph N/A   Mostly Cloudy
5:55 PM 28.4 °F 17.0 °F 12.2 °F 51% 30.29 in 10.0 mi NNW 15.0 mph - N/A   Scattered Clouds
6:15 PM 28.4 °F 17.0 °F 10.4 °F 47% 30.30 in 10.0 mi NNW 15.0 mph - N/A   Scattered Clouds
6:35 PM 26.6 °F 14.3 °F 12.2 °F 55% 30.30 in 10.0 mi NNW 16.1 mph 19.6 mph N/A   Scattered Clouds
6:55 PM 26.6 °F 15.2 °F 12.2 °F 55% 30.31 in 10.0 mi NNW 13.8 mph - N/A   Scattered Clouds
7:15 PM 26.6 °F 14.7 °F 12.2 °F 55% 30.31 in 10.0 mi North 15.0 mph - N/A   Scattered Clouds
7:35 PM 24.8 °F 13.4 °F 12.2 °F 59% 30.32 in 10.0 mi North 12.7 mph - N/A   Clear
7:55 PM 23.0 °F 11.1 °F 10.4 °F 59% 30.32 in 10.0 mi North 12.7 mph - N/A   Clear
8:15 PM 21.2 °F 10.1 °F 12.2 °F 68% 30.32 in 10.0 mi North 10.4 mph - N/A   Clear
8:35 PM 19.4 °F 8.6 °F 10.4 °F 68% 30.32 in 10.0 mi North 9.2 mph - N/A   Clear
8:55 PM 17.6 °F 8.2 °F 10.4 °F 73% 30.32 in 10.0 mi North 6.9 mph - N/A   Clear
9:15 PM 19.4 °F 12.8 °F 10.4 °F 68% 30.32 in 10.0 mi North 4.6 mph - N/A   Clear
9:35 PM 19.4 °F 12.8 °F 12.2 °F 74% 30.33 in 10.0 mi NNW 4.6 mph - N/A   Clear
9:55 PM 19.4 °F 12.8 °F 12.2 °F 74% 30.33 in 10.0 mi NNW 4.6 mph - N/A   Clear
10:15 PM 19.4 °F 14.3 °F 12.2 °F 74% 30.33 in 10.0 mi NNW 3.5 mph - N/A   Clear
10:35 PM 19.4 °F 11.5 °F 10.4 °F 68% 30.33 in 10.0 mi NNW 5.8 mph - N/A   Clear
10:55 PM 17.6 °F 10.7 °F 12.2 °F 79% 30.33 in 10.0 mi WNW 4.6 mph - N/A   Clear
11:15 PM 17.6 °F 9.3 °F 10.4 °F 73% 30.34 in 10.0 mi WNW 5.8 mph - N/A   Clear
11:35 PM 17.6 °F 9.3 °F 12.2 °F 79% 30.34 in 10.0 mi WNW 5.8 mph - N/A   Clear
11:55 PM 17.6 °F 9.3 °F 12.2 °F 79% 30.34 in 10.0 mi WNW 5.8 mph - N/A   Clear